^^
Cohasset Weather Station Historical Data
 
Daily Summary for February 19, 2020 Units:  English    Metric   Both
Daily Weekly Monthly Yearly Custom
  Current: High: Low: Average:
Temperature: 53.9 °F 56.3 °F 35.1 °F 39.9 °F
Dew Point: 32.5 °F 33.2 °F 22.3 °F 27.7 °F
Humidity: 44% 75% 41% 63%
Wind Speed: 0mph 0mph 0mph 0mph
Wind Gust: 0mph 0mph - -
WindCalm - -
Pressure: 30.12 in 30.14 in 30.06 in -
Precipitation: 0 in      
Historical Graphs
 
 
Tabular Data for February 19, 2020
Time Temperature Dew Point Pressure Wind Wind Speed Wind Gust Humidity Rainfall Rate (Hourly) solar
00:00 37.6 °F 28.3 °F 30.06 in Calm     69% 0 in WeatherDisplay:10.37 W/m2
00:05 37.6 °F 28.3 °F 30.06 in Calm     69% 0 in WeatherDisplay:10.37 W/m2
00:10 37.6 °F 28.3 °F 30.06 in Calm     69% 0 in WeatherDisplay:10.37 W/m2
00:15 37.6 °F 28.3 °F 30.07 in Calm     69% 0 in WeatherDisplay:10.37 W/m2
00:20 37.4 °F 28.5 °F 30.07 in Calm     70% 0 in WeatherDisplay:10.37 W/m2
00:25 37.2 °F 28.3 °F 30.06 in Calm     70% 0 in WeatherDisplay:10.37 W/m2
00:30 37.2 °F 28.3 °F 30.06 in Calm     70% 0 in WeatherDisplay:10.37 W/m2
00:35 37.2 °F 28.3 °F 30.07 in Calm     70% 0 in WeatherDisplay:10.37 W/m2
00:40 37 °F 28.1 °F 30.07 in Calm     70% 0 in WeatherDisplay:10.37 W/m2
00:45 37 °F 28.1 °F 30.07 in Calm     70% 0 in WeatherDisplay:10.37 W/m2
00:50 37 °F 28.1 °F 30.07 in Calm     70% 0 in WeatherDisplay:10.37 W/m2
00:55 37 °F 28.5 °F 30.07 in Calm     71% 0 in WeatherDisplay:10.37 W/m2
01:00 37 °F 28.5 °F 30.07 in Calm     71% 0 in WeatherDisplay:10.37 W/m2
01:05 37 °F 28.5 °F 30.07 in Calm     71% 0 in WeatherDisplay:10.37 W/m2
01:10 37 °F 28.5 °F 30.07 in Calm     71% 0 in WeatherDisplay:10.37 W/m2
01:15 37 °F 28.5 °F 30.06 in Calm     71% 0 in WeatherDisplay:10.37 W/m2
01:20 37 °F 28.8 °F 30.06 in Calm     72% 0 in WeatherDisplay:10.37 W/m2
01:25 37.2 °F 29 °F 30.07 in Calm     72% 0 in WeatherDisplay:10.37 W/m2
01:30 37.2 °F 29 °F 30.07 in Calm     72% 0 in WeatherDisplay:10.37 W/m2
01:35 37.4 °F 29.2 °F 30.06 in Calm     72% 0 in WeatherDisplay:10.37 W/m2
01:40 37.4 °F 29.2 °F 30.06 in Calm     72% 0 in WeatherDisplay:10.37 W/m2
01:45 37.4 °F 29.2 °F 30.06 in Calm     72% 0 in WeatherDisplay:10.37 W/m2
01:50 37.4 °F 29.2 °F 30.07 in Calm     72% 0 in WeatherDisplay:10.37 W/m2
01:55 37.4 °F 29.2 °F 30.07 in Calm     72% 0 in WeatherDisplay:10.37 W/m2
02:00 37.4 °F 29.2 °F 30.07 in Calm     72% 0 in WeatherDisplay:10.37 W/m2
02:05 37.4 °F 29.2 °F 30.07 in Calm     72% 0 in WeatherDisplay:10.37 W/m2
02:10 37.4 °F 29.2 °F 30.07 in Calm     72% 0 in WeatherDisplay:10.37 W/m2
02:15 37.2 °F 29 °F 30.07 in Calm     72% 0 in WeatherDisplay:10.37 W/m2
02:20 37 °F 28.9 °F 30.07 in Calm     72% 0 in WeatherDisplay:10.37 W/m2
02:25 37 °F 28.8 °F 30.07 in Calm     72% 0 in WeatherDisplay:10.37 W/m2
02:30 37 °F 28.8 °F 30.07 in Calm     72% 0 in WeatherDisplay:10.37 W/m2
02:35 36.9 °F 29.1 °F 30.07 in Calm     73% 0 in WeatherDisplay:10.37 W/m2
02:40 36.9 °F 29.1 °F 30.07 in Calm     73% 0 in WeatherDisplay:10.37 W/m2
02:45 36.9 °F 29.4 °F 30.07 in Calm     74% 0 in WeatherDisplay:10.37 W/m2
02:50 36.7 °F 29.2 °F 30.07 in Calm     74% 0 in WeatherDisplay:10.37 W/m2
02:55 36.7 °F 29.2 °F 30.07 in Calm     74% 0 in WeatherDisplay:10.37 W/m2
03:00 36.7 °F 29.5 °F 30.07 in Calm     75% 0 in WeatherDisplay:10.37 W/m2
03:05 36.7 °F 29.5 °F 30.07 in Calm     75% 0 in WeatherDisplay:10.37 W/m2
03:10 36.5 °F 29.3 °F 30.07 in Calm     75% 0 in WeatherDisplay:10.37 W/m2
03:15 36.5 °F 29.3 °F 30.06 in Calm     75% 0 in WeatherDisplay:10.37 W/m2
03:20 36.5 °F 29.3 °F 30.06 in Calm     75% 0 in WeatherDisplay:10.37 W/m2
03:25 36.4 °F 29.2 °F 30.06 in Calm     75% 0 in WeatherDisplay:10.37 W/m2
03:30 36.3 °F 29.1 °F 30.06 in Calm     75% 0 in WeatherDisplay:10.37 W/m2
03:35 36.3 °F 29.1 °F 30.06 in Calm     75% 0 in WeatherDisplay:10.37 W/m2
03:40 36.1 °F 28.9 °F 30.06 in Calm     75% 0 in WeatherDisplay:10.37 W/m2
03:45 36.1 °F 28.9 °F 30.06 in Calm     75% 0 in WeatherDisplay:10.37 W/m2
03:50 36.1 °F 28.9 °F 30.06 in Calm     75% 0 in WeatherDisplay:10.37 W/m2
03:55 36.1 °F 28.9 °F 30.06 in Calm     75% 0 in WeatherDisplay:10.37 W/m2
04:00 36 °F 28.9 °F 30.06 in Calm     75% 0 in WeatherDisplay:10.37 W/m2
04:05 36 °F 28.8 °F 30.06 in Calm     75% 0 in WeatherDisplay:10.37 W/m2
04:10 36 °F 28.8 °F 30.06 in Calm     75% 0 in WeatherDisplay:10.37 W/m2
04:15 35.8 °F 28.3 °F 30.06 in Calm     74% 0 in WeatherDisplay:10.37 W/m2
04:20 35.8 °F 28.3 °F 30.06 in Calm     74% 0 in WeatherDisplay:10.37 W/m2
04:25 35.6 °F 28.1 °F 30.07 in Calm     74% 0 in WeatherDisplay:10.37 W/m2
04:30 35.6 °F 28.1 °F 30.07 in Calm     74% 0 in WeatherDisplay:10.37 W/m2
04:35 35.4 °F 27.9 °F 30.07 in Calm     74% 0 in WeatherDisplay:10.37 W/m2
04:40 35.4 °F 27.9 °F 30.07 in Calm     74% 0 in WeatherDisplay:10.37 W/m2
04:45 35.4 °F 27.9 °F 30.07 in Calm     74% 0 in WeatherDisplay:10.37 W/m2
04:50 35.2 °F 27.4 °F 30.07 in Calm     73% 0 in WeatherDisplay:10.37 W/m2
04:55 35.2 °F 27.4 °F 30.07 in Calm     73% 0 in WeatherDisplay:10.37 W/m2
05:00 35.2 °F 27.1 °F 30.07 in Calm     72% 0 in WeatherDisplay:10.37 W/m2
05:05 35.1 °F 27 °F 30.07 in Calm     72% 0 in WeatherDisplay:10.37 W/m2
05:10 35.1 °F 26.6 °F 30.07 in Calm     71% 0 in WeatherDisplay:10.37 W/m2
05:15 35.1 °F 26.6 °F 30.08 in Calm     71% 0 in WeatherDisplay:10.37 W/m2
05:20 35.1 °F 26.6 °F 30.08 in Calm     71% 0 in WeatherDisplay:10.37 W/m2
05:25 35.1 °F 26.3 °F 30.08 in Calm     70% 0 in WeatherDisplay:10.37 W/m2
05:30 35.1 °F 26.3 °F 30.08 in Calm     70% 0 in WeatherDisplay:10.37 W/m2
05:35 35.1 °F 25.9 °F 30.08 in Calm     69% 0 in WeatherDisplay:10.37 W/m2
05:40 35.1 °F 25.9 °F 30.08 in Calm     69% 0 in WeatherDisplay:10.37 W/m2
05:45 35.1 °F 25.6 °F 30.08 in Calm     68% 0 in WeatherDisplay:10.37 W/m2
05:50 35.1 °F 25.2 °F 30.07 in Calm     67% 0 in WeatherDisplay:10.37 W/m2
05:55 35.1 °F 25.2 °F 30.07 in Calm     67% 0 in WeatherDisplay:10.37 W/m2
06:00 35.2 °F 24.6 °F 30.07 in Calm     65% 0 in WeatherDisplay:10.37 W/m2
06:05 35.4 °F 24.4 °F 30.07 in Calm     64% 0 in WeatherDisplay:10.37 W/m2
06:10 35.4 °F 24 °F 30.07 in Calm     63% 0 in WeatherDisplay:10.37 W/m2
06:15 35.6 °F 23.5 °F 30.08 in Calm     61% 0 in WeatherDisplay:10.37 W/m2
06:20 35.6 °F 23.5 °F 30.08 in Calm     61% 0 in WeatherDisplay:10.37 W/m2
06:25 35.8 °F 23.3 °F 30.08 in Calm     60% 0 in WeatherDisplay:10.37 W/m2
06:30 35.8 °F 23.3 °F 30.08 in Calm     60% 0 in WeatherDisplay:10.37 W/m2
06:35 35.8 °F 23.3 °F 30.09 in Calm     60% 0 in WeatherDisplay:10.37 W/m2
06:40 35.8 °F 23.3 °F 30.09 in Calm     60% 0 in WeatherDisplay:10.37 W/m2
06:45 35.8 °F 23.3 °F 30.09 in Calm     60% 0 in WeatherDisplay:10.37 W/m2
06:50 35.8 °F 23.3 °F 30.09 in Calm     60% 0 in WeatherDisplay:10.37 W/m2
06:55 35.6 °F 23.1 °F 30.09 in Calm     60% 0 in WeatherDisplay:10.37 W/m2
07:00 35.6 °F 23.5 °F 30.09 in Calm     61% 0 in WeatherDisplay:10.37 W/m2
07:05 35.6 °F 23.1 °F 30.09 in Calm     60% 0 in WeatherDisplay:10.37 W/m2
07:10 35.6 °F 23.1 °F 30.09 in Calm     60% 0 in WeatherDisplay:10.37 W/m2
07:15 35.6 °F 23.5 °F 30.09 in Calm     61% 0 in WeatherDisplay:10.37 W/m2
07:20 35.6 °F 22.7 °F 30.09 in Calm     59% 0 in WeatherDisplay:10.37 W/m2
07:25 35.6 °F 23.1 °F 30.09 in Calm     60% 0 in WeatherDisplay:10.37 W/m2
07:30 35.6 °F 22.7 °F 30.09 in Calm     59% 0 in WeatherDisplay:10.37 W/m2
07:35 35.6 °F 22.3 °F 30.11 in Calm     58% 0 in WeatherDisplay:10.37 W/m2
07:40 35.6 °F 22.3 °F 30.11 in Calm     58% 0 in WeatherDisplay:10.37 W/m2
07:45 35.6 °F 22.3 °F 30.11 in Calm     58% 0 in WeatherDisplay:10.37 W/m2
07:50 35.8 °F 22.5 °F 30.11 in Calm     58% 0 in WeatherDisplay:10.37 W/m2
07:55 35.8 °F 22.9 °F 30.11 in Calm     59% 0 in WeatherDisplay:10.37 W/m2
08:00 35.8 °F 22.9 °F 30.11 in Calm     59% 0 in WeatherDisplay:10.37 W/m2
08:05 35.8 °F 23.3 °F 30.11 in Calm     60% 0 in WeatherDisplay:10.37 W/m2
08:10 36.1 °F 23.5 °F 30.11 in Calm     60% 0 in WeatherDisplay:10.37 W/m2
08:15 36.3 °F 23.7 °F 30.11 in Calm     60% 0 in WeatherDisplay:10.37 W/m2
08:20 36.3 °F 24.5 °F 30.11 in Calm     62% 0 in WeatherDisplay:10.37 W/m2
08:25 36.7 °F 24.9 °F 30.11 in Calm     62% 0 in WeatherDisplay:10.37 W/m2
08:30 37 °F 25.2 °F 30.11 in Calm     62% 0 in WeatherDisplay:10.37 W/m2
08:35 37.4 °F 25.6 °F 30.12 in Calm     62% 0 in WeatherDisplay:10.37 W/m2
08:40 37.9 °F 26 °F 30.12 in Calm     62% 0 in WeatherDisplay:10.37 W/m2
08:45 38.1 °F 26.2 °F 30.12 in Calm     62% 0 in WeatherDisplay:10.37 W/m2
08:50 38.4 °F 26.5 °F 30.12 in Calm     62% 0 in WeatherDisplay:10.37 W/m2
08:55 38.9 °F 27.4 °F 30.12 in Calm     63% 0 in WeatherDisplay:10.37 W/m2
09:00 39.3 °F 27.8 °F 30.12 in Calm     63% 0 in WeatherDisplay:10.37 W/m2
09:05 39.7 °F 28.5 °F 30.12 in Calm     64% 0 in WeatherDisplay:10.37 W/m2
09:10 39.7 °F 28.5 °F 30.12 in Calm     64% 0 in WeatherDisplay:10.37 W/m2
09:15 40.3 °F 29.5 °F 30.13 in Calm     65% 0 in WeatherDisplay:10.37 W/m2
09:20 40.8 °F 28.8 °F 30.13 in Calm     62% 0 in WeatherDisplay:10.37 W/m2
09:25 41.4 °F 28.5 °F 30.13 in Calm     60% 0 in WeatherDisplay:10.37 W/m2
09:30 41.9 °F 27.3 °F 30.13 in Calm     56% 0 in WeatherDisplay:10.37 W/m2
09:35 42.1 °F 27.9 °F 30.13 in Calm     57% 0 in WeatherDisplay:10.37 W/m2
09:40 43.3 °F 29.1 °F 30.13 in Calm     57% 0 in WeatherDisplay:10.37 W/m2
09:45 43.4 °F 27.4 °F 30.13 in Calm     53% 0 in WeatherDisplay:10.37 W/m2
09:50 43.7 °F 28.1 °F 30.13 in Calm     54% 0 in WeatherDisplay:10.37 W/m2
09:55 44.1 °F 29 °F 30.13 in Calm     55% 0 in WeatherDisplay:10.37 W/m2
10:00 44.6 °F 27.1 °F 30.14 in Calm     50% 0 in WeatherDisplay:10.37 W/m2
10:05 44.8 °F 27.3 °F 30.14 in Calm     50% 0 in WeatherDisplay:10.37 W/m2
10:10 45.2 °F 26.1 °F 30.14 in Calm     47% 0 in WeatherDisplay:10.37 W/m2
10:15 45.9 °F 26.8 °F 30.14 in Calm     47% 0 in WeatherDisplay:10.37 W/m2
10:20 46.7 °F 27.5 °F 30.14 in Calm     47% 0 in WeatherDisplay:10.37 W/m2
10:25 46.9 °F 28.7 °F 30.14 in Calm     49% 0 in WeatherDisplay:10.37 W/m2
10:30 47.4 °F 28.7 °F 30.14 in Calm     48% 0 in WeatherDisplay:10.37 W/m2
10:35 47.8 °F 30 °F 30.14 in Calm     50% 0 in WeatherDisplay:10.37 W/m2
10:40 48 °F 29.7 °F 30.14 in Calm     49% 0 in WeatherDisplay:10.37 W/m2
10:45 48.2 °F 30.9 °F 30.14 in Calm     51% 0 in WeatherDisplay:10.37 W/m2
10:50 48.7 °F 30.9 °F 30.14 in Calm     50% 0 in WeatherDisplay:10.37 W/m2
10:55 49.2 °F 30.3 °F 30.14 in Calm     48% 0 in WeatherDisplay:10.37 W/m2
11:00 49.6 °F 29.1 °F 30.14 in Calm     45% 0 in WeatherDisplay:10.37 W/m2
11:05 50.4 °F 30.9 °F 30.14 in Calm     47% 0 in WeatherDisplay:10.37 W/m2
11:10 51.8 °F 30.6 °F 30.14 in Calm     44% 0 in WeatherDisplay:10.37 W/m2
11:15 51.3 °F 29.5 °F 30.14 in Calm     43% 0 in WeatherDisplay:10.37 W/m2
11:20 51.5 °F 30.8 °F 30.14 in Calm     45% 0 in WeatherDisplay:10.37 W/m2
11:25 52.2 °F 30.9 °F 30.14 in Calm     44% 0 in WeatherDisplay:10.37 W/m2
11:30 52 °F 30.7 °F 30.14 in Calm     44% 0 in WeatherDisplay:10.37 W/m2
11:35 52.2 °F 30.9 °F 30.14 in Calm     44% 0 in WeatherDisplay:10.37 W/m2
11:40 52.3 °F 30.4 °F 30.14 in Calm     43% 0 in WeatherDisplay:10.37 W/m2
11:45 52.3 °F 30.4 °F 30.14 in Calm     43% 0 in WeatherDisplay:10.37 W/m2
11:50 52.3 °F 31 °F 30.14 in Calm     44% 0 in WeatherDisplay:10.37 W/m2
11:55 52.3 °F 31.6 °F 30.14 in Calm     45% 0 in WeatherDisplay:10.37 W/m2
12:00 52.6 °F 31.8 °F 30.13 in Calm     45% 0 in WeatherDisplay:10.37 W/m2
12:05 53.1 °F 31.2 °F 30.13 in Calm     43% 0 in WeatherDisplay:10.37 W/m2
12:10 53.7 °F 32.3 °F 30.13 in Calm     44% 0 in WeatherDisplay:10.37 W/m2
12:15 54 °F 32.6 °F 30.13 in Calm     44% 0 in WeatherDisplay:10.37 W/m2
12:20 54.7 °F 33.2 °F 30.13 in Calm     44% 0 in WeatherDisplay:10.37 W/m2
12:25 55.8 °F 33 °F 30.13 in Calm     42% 0 in WeatherDisplay:10.37 W/m2
12:30 56.3 °F 32.9 °F 30.13 in Calm     41% 0 in WeatherDisplay:10.37 W/m2
12:35 55.8 °F 32.4 °F 30.12 in Calm     41% 0 in WeatherDisplay:10.37 W/m2
12:40 55.3 °F 32.6 °F 30.12 in Calm     42% 0 in WeatherDisplay:10.37 W/m2
12:45 53.9 °F 32.5 °F 30.12 in Calm     44% 0 in WeatherDisplay:10.37 W/m2
Cohasset, California, USA
Compliments of Weather Underground - 2 mb